Location: İstanbul
(41.0082°N, 28.9784°E)
Time: 04:43:37
(UTC+03:00)

CAS-6 - Pass Details

Date: 02 May 2024
Orbit: 607 x 628 km, 97.8° (Epoch: 24 May)

Event Time Altitude Azimuth Distance (km) Brightness Sun altitude
Exits shadow 23:43:59 33° 312° (NW) 1,051 ? -30.5°
Drops below altitude 10° 23:46:38 10° 335° (NNW) 1,977 ? -30.7°
Sets 23:48:53 0° 342° (NNW) 2,884 ? -30.9°
